Escanaba, MI

9:16 AM EDT on April 30, 2017 (GMT -0400)
Delta County

Weather History for KESC - October, 2012

Change the Weather History Date:

Tuesday, October 9, 2012

  Actual Average Record
Temperature  
Mean Temperature 47 °F -  
Max Temperature 55 °F 55 °F 71 °F (2011)
Min Temperature 39 °F 41 °F 28 °F (1989)
Degree Days  
Heating Degree Days 18    
Moisture  
Dew Point 39 °F    
Average Humidity 70    
Maximum Humidity 87    
Minimum Humidity 47    
Precipitation  
Precipitation 0.24 in - - ()
Sea Level Pressure  
Sea Level Pressure 29.72 in    
Wind  
Wind Speed 15 mph (SW)    
Max Wind Speed 23 mph    
Max Gust Speed 38 mph    
Visibility 9 miles    
Events      
Averages and records for this station are not official NWS values.
T = Trace of Precipitation, MM = Missing Value Source: NWS Daily Summary

Daily Weather History Graph

Daily Weather History Graph

Search for Another Location

Airport or City:

Trip Planner

Search our weather history database for the weather conditions in past years. The results will help you decide how hot, cold, wet, or windy it might be!

Date:

Astronomy

Oct. 09, 2012 Rise Set
Actual Time 7:57 AM EDT 7:12 PM EDT
Civil Twilight 7:27 AM EDT 7:42 PM EDT
Nautical Twilight 6:53 AM EDT 8:16 PM EDT
Astronomical Twilight 6:18 AM EDT 8:51 PM EDT
Moon 1:15 AM EDT (10/9) 3:55 PM EDT (10/9)
Length of Visible Light 12h 14m
Length of Day
11h 14m
Last Quarter, 37% of the Moon is Illuminated
Oct 9
Last Quarter
Oct 15
New
Oct 21
First Quarter
Oct 29
Full
Nov 6
Last Quarter

Hourly Weather History & Observations

Time (EDT) Temp. Windchill Dew Point Humidity Pressure Visibility Wind Dir Wind Speed Gust Speed Precip Events Conditions
12:15 AM 55.4 °F - 37.4 °F 51% 29.75 in 10.0 mi South 21.9 mph 29.9 mph N/A   Partly Cloudy
12:35 AM 55.4 °F - 37.4 °F 51% 29.74 in 10.0 mi South 20.7 mph 29.9 mph N/A   Scattered Clouds
12:55 AM 55.4 °F - 37.4 °F 51% 29.74 in 10.0 mi SSW 15.0 mph 33.4 mph N/A   Clear
1:15 AM 55.4 °F - 37.4 °F 51% 29.73 in 10.0 mi SSW 18.4 mph 27.6 mph N/A   Clear
1:35 AM 55.4 °F - 37.4 °F 51% 29.73 in 10.0 mi SSW 23.0 mph 34.5 mph N/A   Clear
1:55 AM 55.4 °F - 37.4 °F 51% 29.73 in 10.0 mi SSW 19.6 mph 27.6 mph N/A   Clear
2:15 AM 55.4 °F - 35.6 °F 47% 29.73 in 10.0 mi SSW 21.9 mph 32.2 mph N/A   Clear
2:35 AM 55.4 °F - 35.6 °F 47% 29.73 in 10.0 mi SSW 18.4 mph 38.0 mph N/A   Clear
2:55 AM 55.4 °F - 35.6 °F 47% 29.73 in 10.0 mi SSW 16.1 mph 27.6 mph N/A   Clear
3:15 AM 55.4 °F - 35.6 °F 47% 29.72 in 10.0 mi SSW 19.6 mph 31.1 mph N/A   Scattered Clouds
3:55 AM 53.6 °F - 35.6 °F 51% 29.71 in 10.0 mi SSW 17.3 mph 24.2 mph N/A   Overcast
4:15 AM 53.6 °F - 35.6 °F 51% 29.70 in 10.0 mi SSW 19.6 mph 26.5 mph N/A   Overcast
4:35 AM 53.6 °F - 35.6 °F 51% 29.71 in 10.0 mi SSW 15.0 mph 24.2 mph N/A   Overcast
4:55 AM 53.6 °F - 35.6 °F 51% 29.71 in 10.0 mi SSW 15.0 mph 20.7 mph N/A   Overcast
5:15 AM 53.6 °F - 35.6 °F 51% 29.71 in 10.0 mi SSW 13.8 mph 18.4 mph N/A   Overcast
5:35 AM 51.8 °F - 35.6 °F 54% 29.71 in 10.0 mi SSW 11.5 mph - N/A   Overcast
5:55 AM 51.8 °F - 35.6 °F 54% 29.72 in 10.0 mi SSW 12.7 mph 17.3 mph N/A   Overcast
6:15 AM 51.8 °F - 37.4 °F 58% 29.72 in 10.0 mi SSW 12.7 mph 17.3 mph N/A   Overcast
6:35 AM 51.8 °F - 37.4 °F 58% 29.72 in 10.0 mi SSW 15.0 mph 19.6 mph N/A   Overcast
6:55 AM 50.0 °F - 39.2 °F 66% 29.72 in 10.0 mi SSW 17.3 mph 24.2 mph N/A   Overcast
7:15 AM 50.0 °F - 39.2 °F 66% 29.73 in 10.0 mi SSW 16.1 mph 28.8 mph N/A   Overcast
7:35 AM 50.0 °F - 39.2 °F 66% 29.73 in 10.0 mi SSW 16.1 mph 21.9 mph N/A   Overcast
7:55 AM 48.2 °F - 39.2 °F 71% 29.74 in 10.0 mi SSW 13.8 mph 21.9 mph N/A   Overcast
8:15 AM 48.2 °F - 39.2 °F 71% 29.75 in 10.0 mi SW 11.5 mph - N/A   Overcast
8:35 AM 50.0 °F - 37.4 °F 62% 29.75 in 10.0 mi SW 10.4 mph 17.3 mph N/A   Overcast
8:55 AM 50.0 °F - 37.4 °F 62% 29.76 in 10.0 mi SW 12.7 mph 17.3 mph N/A   Overcast
9:15 AM 50.0 °F - 37.4 °F 62% 29.76 in 10.0 mi SW 11.5 mph - N/A   Overcast
9:35 AM 51.8 °F - 37.4 °F 58% 29.76 in 10.0 mi SW 9.2 mph - N/A   Overcast
9:55 AM 51.8 °F - 37.4 °F 58% 29.76 in 10.0 mi SSW 9.2 mph - N/A   Overcast
10:15 AM 51.8 °F - 37.4 °F 58% 29.76 in 10.0 mi SSW 10.4 mph - N/A   Overcast
10:35 AM 51.8 °F - 37.4 °F 58% 29.76 in 10.0 mi SW 9.2 mph - N/A   Overcast
10:55 AM 51.8 °F - 37.4 °F 58% 29.76 in 10.0 mi SSW 10.4 mph - N/A   Overcast
11:15 AM 51.8 °F - 37.4 °F 58% 29.75 in 10.0 mi SSW 11.5 mph 18.4 mph N/A   Overcast
11:35 AM 51.8 °F - 41.0 °F 67% 29.75 in 10.0 mi SSW 16.1 mph 19.6 mph N/A   Overcast
11:55 AM 53.6 °F - 42.8 °F 67% 29.74 in 10.0 mi SSW 19.6 mph 24.2 mph N/A   Mostly Cloudy
12:15 PM 51.8 °F - 42.8 °F 71% 29.74 in 10.0 mi South 16.1 mph 24.2 mph N/A   Scattered Clouds
12:35 PM 51.8 °F - 44.6 °F 76% 29.74 in 10.0 mi SSW 15.0 mph 24.2 mph N/A   Scattered Clouds
12:55 PM 51.8 °F - 42.8 °F 71% 29.73 in 10.0 mi South 15.0 mph 24.2 mph N/A   Overcast
1:15 PM 51.8 °F - 44.6 °F 76% 29.72 in 10.0 mi South 10.4 mph - N/A   Overcast
1:35 PM 51.8 °F - 44.6 °F 76% 29.71 in 10.0 mi SSW 12.7 mph - N/A   Overcast
1:55 PM 50.0 °F - 42.8 °F 76% 29.70 in 10.0 mi SSW 16.1 mph 24.2 mph N/A   Overcast
2:35 PM 50.0 °F - 44.6 °F 82% 29.68 in 10.0 mi South 10.4 mph 17.3 mph N/A   Overcast
2:55 PM 48.2 °F - 44.6 °F 87% 29.68 in 5.0 mi SSW 12.7 mph 20.7 mph N/A   Overcast
3:15 PM 48.2 °F - 44.6 °F 87% 29.68 in 5.0 mi SSW 11.5 mph 17.3 mph 0.05 in   Overcast
3:35 PM 48.2 °F - 44.6 °F 87% 29.68 in 5.0 mi SW 8.1 mph - 0.09 in   Overcast
3:55 PM 48.2 °F - 44.6 °F 87% 29.67 in 5.0 mi SW 10.4 mph - 0.10 in   Overcast
4:15 PM 48.2 °F - 44.6 °F 87% 29.67 in 5.0 mi SSW 8.1 mph - 0.02 in   Overcast
4:35 PM 48.2 °F - 44.6 °F 87% 29.66 in 5.0 mi SSW 10.4 mph - 0.03 in   Overcast
4:55 PM 48.2 °F - 44.6 °F 87% 29.66 in 7.0 mi SSW 10.4 mph - 0.03 in   Overcast
5:15 PM 48.2 °F - 44.6 °F 87% 29.67 in 10.0 mi SSW 9.2 mph - 0.01 in   Overcast
5:35 PM 48.2 °F - 44.6 °F 87% 29.66 in 5.0 mi SSW 12.7 mph 17.3 mph 0.04 in   Overcast
5:55 PM 46.4 °F 40.1 °F 41.0 °F 81% 29.68 in 10.0 mi WNW 15.0 mph 19.6 mph 0.05 in   Mostly Cloudy
6:15 PM 44.6 °F 38.8 °F 41.0 °F 87% 29.69 in 9.0 mi West 11.5 mph - 0.01 in   Overcast
6:35 PM 44.6 °F 36.4 °F 39.2 °F 81% 29.69 in 5.0 mi West 20.7 mph 28.8 mph 0.02 in   Mostly Cloudy
6:55 PM 42.8 °F 33.5 °F 39.2 °F 87% 29.70 in 5.0 mi West 23.0 mph 27.6 mph 0.06 in   Overcast
7:15 PM 42.8 °F 37.5 °F 37.4 °F 81% 29.73 in 5.0 mi West 9.2 mph - N/A   Overcast
7:35 PM 42.8 °F 38.6 °F 37.4 °F 81% 29.72 in 10.0 mi West 6.9 mph - N/A   Overcast
7:55 PM 41.0 °F 38.0 °F 37.4 °F 87% 29.73 in 10.0 mi WSW 4.6 mph - N/A   Overcast
8:15 PM 41.0 °F 37.1 °F 37.4 °F 87% 29.74 in 10.0 mi SW 5.8 mph - N/A   Mostly Cloudy
8:35 PM 41.0 °F 37.1 °F 37.4 °F 87% 29.74 in 10.0 mi WSW 5.8 mph - N/A   Clear
8:55 PM 41.0 °F 35.2 °F 35.6 °F 81% 29.74 in 10.0 mi WSW 9.2 mph - N/A   Clear
9:15 PM 39.2 °F 35.0 °F 35.6 °F 87% 29.74 in 10.0 mi SW 5.8 mph - N/A   Clear
9:35 PM 39.2 °F 35.0 °F 35.6 °F 87% 29.74 in 10.0 mi WSW 5.8 mph - N/A   Clear
9:55 PM 39.2 °F 35.0 °F 35.6 °F 87% 29.74 in 10.0 mi WSW 5.8 mph - N/A   Clear
10:15 PM 39.2 °F 35.0 °F 35.6 °F 87% 29.74 in 10.0 mi WNW 5.8 mph - N/A   Clear
10:35 PM 39.2 °F 33.6 °F 35.6 °F 87% 29.74 in 10.0 mi West 8.1 mph - N/A   Clear
10:55 PM 39.2 °F 34.2 °F 35.6 °F 87% 29.74 in 10.0 mi West 6.9 mph - N/A   Clear
11:15 PM 39.2 °F 33.0 °F 35.6 °F 87% 29.74 in 10.0 mi West 9.2 mph - N/A   Clear
11:35 PM 39.2 °F 33.0 °F 35.6 °F 87% 29.74 in 10.0 mi West 9.2 mph - N/A   Clear